Zurück zum Katalog

STARLINK-32846

AktivKommunikationVLEO
NORAD 62867·PAYLOAD·🇺🇸 United States

Gestartet Feb 1, 2025 von Vandenberg Space Force Base

Loading…

Nächste Überflüge (nächste 24 Stunden)

TLE

AktuellSource: CelesTrak SupGP

Epoche: Sep 15, 2026, 03:10 UTC

1 62867C 25022P   26258.13243056  .00053860  00000+0  15913-2 0  2587
2 62867  53.1596 326.7082 0001150  91.4854   3.9219 15.34364129    19

Verfolge STARLINK-32846 in Echtzeit mit AllMySat

Download on the App Store